Abbeville, LA

5:52 AM CDT on July 21, 2017 (GMT -0500)
Abbeville

Weather History for KIYA - November, 2012

Change the Weather History Date:

Wednesday, November 21, 2012

  Actual Average (KARA) Record (KARA)
Temperature  
Mean Temperature 64 °F -  
Max Temperature 79 °F 67 °F 84 °F (2011)
Min Temperature 49 °F 48 °F 28 °F (1952)
Degree Days  
Heating Degree Days 1    
Growing Degree Days 14 (Base 50)    
Moisture  
Dew Point 51 °F    
Average Humidity 74    
Maximum Humidity 100    
Minimum Humidity 31    
Precipitation  
Precipitation 0.00 in - - ()
Sea Level Pressure  
Sea Level Pressure 30.19 in    
Wind  
Wind Speed 3 mph ()    
Max Wind Speed 13 mph    
Max Gust Speed 17 mph    
Visibility 9.8 miles    
Events      
Averages and records for this station are not official NWS values.
T = Trace of Precipitation, MM = Missing Value Source: Averaged Metar Reports

Daily Weather History Graph

Daily Weather History Graph

Search for Another Location

Airport or City:

Trip Planner

Search our weather history database for the weather conditions in past years. The results will help you decide how hot, cold, wet, or windy it might be!

Date:

Astronomy

Nov. 21, 2012 Rise Set
Actual Time 6:38 AM CST 5:09 PM CST
Civil Twilight 6:13 AM CST 5:35 PM CST
Nautical Twilight 5:43 AM CST 6:04 PM CST
Astronomical Twilight 5:15 AM CST 6:33 PM CST
Moon 1:02 PM CST 12:24 AM CST
Length of Visible Light 11h 22m
Length of Day
10h 30m
First Quarter, 62% of the Moon is Illuminated
Nov 21
First Quarter
Nov 28
Full
Dec 6
Last Quarter
Dec 13
New
Dec 19
First Quarter

Hourly Weather History & Observations

Time (CST) Temp. Dew Point Humidity Pressure Visibility Wind Dir Wind Speed Gust Speed Precip Events Conditions
12:15 AM 49.3 °F 48.7 °F 98% 30.19 in 10.0 mi West 3.5 mph - N/A   Clear
12:35 AM 50.2 °F 49.3 °F 97% 30.18 in 10.0 mi Calm Calm - N/A   Clear
12:55 AM 51.6 °F 49.6 °F 93% 30.18 in 10.0 mi Calm Calm - N/A   Clear
1:15 AM 50.9 °F 50.0 °F 97% 30.18 in 10.0 mi Calm Calm - N/A   Clear
1:35 AM 51.1 °F 50.4 °F 97% 30.18 in 10.0 mi Calm Calm - N/A   Clear
1:55 AM 51.4 °F 50.9 °F 98% 30.18 in 10.0 mi Calm Calm - N/A   Clear
2:15 AM 52.2 °F 50.7 °F 95% 30.18 in 10.0 mi WNW 3.5 mph - N/A   Clear
2:35 AM 52.0 °F 50.9 °F 96% 30.18 in 10.0 mi Calm Calm - N/A   Clear
2:55 AM 51.8 °F 51.6 °F 99% 30.18 in 10.0 mi Calm Calm - N/A   Clear
3:15 AM 51.6 °F 51.6 °F 100% 30.18 in 10.0 mi Calm Calm - N/A   Clear
3:35 AM 50.0 °F 50.0 °F 100% 30.19 in 10.0 mi Calm Calm - N/A   Clear
3:55 AM 50.0 °F 50.0 °F 100% 30.19 in 10.0 mi Calm Calm - N/A   Clear
4:15 AM 50.0 °F 50.0 °F 100% 30.19 in 7.0 mi Calm Calm - N/A   Clear
4:35 AM 49.5 °F 49.5 °F 100% 30.19 in 10.0 mi Calm Calm - N/A   Clear
5:15 AM 50.4 °F 50.4 °F 100% 30.19 in 10.0 mi West 3.5 mph - N/A   Clear
5:35 AM 51.1 °F 51.1 °F 100% 30.20 in 10.0 mi WNW 3.5 mph - N/A   Clear
5:55 AM 49.8 °F 49.8 °F 100% 30.21 in 7.0 mi West 3.5 mph - N/A   Clear
6:15 AM 49.8 °F 49.8 °F 100% 30.21 in 7.0 mi WNW 3.5 mph - N/A   Clear
6:35 AM 49.3 °F 49.3 °F 100% 30.21 in 7.0 mi WNW 3.5 mph - N/A   Clear
6:55 AM 50.2 °F 50.2 °F 100% 30.22 in 5.0 mi WNW 3.5 mph - N/A   Clear
7:15 AM 51.1 °F 51.1 °F 100% 30.23 in 10.0 mi Calm Calm - N/A   Clear
7:35 AM 54.3 °F 54.1 °F 99% 30.23 in 10.0 mi Calm Calm - N/A   Clear
7:55 AM 57.4 °F 54.7 °F 91% 30.24 in 10.0 mi Calm Calm - N/A   Clear
8:15 AM 60.6 °F 54.9 °F 81% 30.24 in 10.0 mi WNW 3.5 mph - N/A   Clear
8:35 AM 63.5 °F 55.2 °F 74% 30.25 in 10.0 mi NW 5.8 mph - N/A   Clear
8:55 AM 65.5 °F 55.9 °F 71% 30.25 in 10.0 mi WNW 6.9 mph - N/A   Clear
9:15 AM 67.6 °F 57.4 °F 70% 30.25 in 10.0 mi WNW 6.9 mph - N/A   Clear
9:35 AM 69.8 °F 58.5 °F 67% 30.25 in 10.0 mi WNW 5.8 mph - N/A   Clear
9:55 AM 71.8 °F 58.6 °F 63% 30.25 in 10.0 mi WNW 5.8 mph - N/A   Clear
10:15 AM 73.8 °F 59.2 °F 60% 30.24 in 10.0 mi NW 5.8 mph - N/A   Clear
10:35 AM 74.7 °F 58.6 °F 57% 30.24 in 10.0 mi NNW 10.4 mph - N/A   Clear
10:55 AM 75.0 °F 58.1 °F 56% 30.24 in 10.0 mi NNW 11.5 mph - N/A   Clear
11:15 AM 75.4 °F 58.1 °F 55% 30.23 in 10.0 mi North 11.5 mph - N/A   Clear
11:35 AM 76.3 °F 58.6 °F 54% 30.22 in 10.0 mi NNW 8.1 mph - N/A   Clear
11:55 AM 76.8 °F 58.8 °F 54% 30.21 in 10.0 mi NW 6.9 mph - N/A   Clear
12:15 PM 77.7 °F 58.6 °F 52% 30.20 in 10.0 mi NNW 8.1 mph - N/A   Clear
12:35 PM 78.3 °F 58.5 °F 50% 30.19 in 10.0 mi NW 10.4 mph 16.1 mph N/A   Clear
12:55 PM 78.4 °F 56.5 °F 47% 30.18 in 10.0 mi NNW 9.2 mph 17.3 mph N/A   Clear
1:15 PM 78.8 °F 52.7 °F 40% 30.17 in 10.0 mi NW 11.5 mph 16.1 mph N/A   Clear
1:35 PM 79.0 °F 52.9 °F 40% 30.16 in 10.0 mi WNW 10.4 mph - N/A   Clear
1:55 PM 79.5 °F 52.3 °F 39% 30.16 in 10.0 mi NW 9.2 mph - N/A   Clear
2:15 PM 79.5 °F 52.0 °F 38% 30.16 in 10.0 mi NNW 12.7 mph - N/A   Clear
2:35 PM 79.3 °F 52.2 °F 39% 30.15 in 10.0 mi NNW 10.4 mph - N/A   Clear
2:55 PM 79.0 °F 49.3 °F 35% 30.15 in 10.0 mi NNW 11.5 mph 17.3 mph N/A   Clear
3:15 PM 78.8 °F 47.1 °F 33% 30.15 in 10.0 mi NNW 9.2 mph - N/A   Clear
3:35 PM 78.3 °F 45.3 °F 31% 30.15 in 10.0 mi NNW 6.9 mph - N/A   Clear
3:55 PM 77.0 °F 45.3 °F 32% 30.15 in 10.0 mi NNW 8.1 mph - N/A   Clear
4:15 PM 75.4 °F 47.5 °F 37% 30.15 in 10.0 mi NNW 6.9 mph - N/A   Clear
4:35 PM 71.2 °F 48.7 °F 45% 30.15 in 10.0 mi NNW 6.9 mph - N/A   Clear
4:55 PM 69.1 °F 49.3 °F 49% 30.16 in 10.0 mi NNW 4.6 mph - N/A   Clear
5:15 PM 68.0 °F 50.0 °F 52% 30.16 in 10.0 mi North 4.6 mph - N/A   Clear
5:35 PM 65.3 °F 49.3 °F 56% 30.16 in 10.0 mi North 3.5 mph - N/A   Clear
5:55 PM 65.5 °F 49.1 °F 55% 30.16 in 10.0 mi NNW 3.5 mph - N/A   Clear
6:15 PM 61.9 °F 49.1 °F 63% 30.17 in 10.0 mi Calm Calm - N/A   Clear
6:35 PM 59.4 °F 49.8 °F 71% 30.17 in 10.0 mi Calm Calm - N/A   Clear
6:55 PM 59.9 °F 48.7 °F 67% 30.18 in 10.0 mi Calm Calm - N/A   Clear
7:15 PM 58.5 °F 48.9 °F 71% 30.18 in 10.0 mi Calm Calm - N/A   Clear
7:35 PM 59.4 °F 48.7 °F 68% 30.19 in 10.0 mi Calm Calm - N/A   Clear
7:55 PM 57.0 °F 48.7 °F 74% 30.19 in 10.0 mi Calm Calm - N/A   Clear
8:15 PM 56.7 °F 48.4 °F 74% 30.19 in 10.0 mi Calm Calm - N/A   Clear
8:35 PM 55.6 °F 48.4 °F 77% 30.20 in 10.0 mi Calm Calm - N/A   Clear
8:55 PM 52.7 °F 48.9 °F 87% 30.20 in 10.0 mi Calm Calm - N/A   Clear
9:15 PM 53.6 °F 50.0 °F 88% 30.21 in 10.0 mi Calm Calm - N/A   Clear
9:35 PM 53.1 °F 48.9 °F 86% 30.21 in 10.0 mi Calm Calm - N/A   Clear
9:55 PM 52.9 °F 48.6 °F 85% 30.21 in 10.0 mi Calm Calm - N/A   Clear
10:15 PM 52.3 °F 48.7 °F 88% 30.20 in 10.0 mi Calm Calm - N/A   Clear
10:35 PM 51.4 °F 48.7 °F 90% 30.20 in 10.0 mi Calm Calm - N/A   Clear
10:55 PM 52.0 °F 48.9 °F 89% 30.20 in 10.0 mi Calm Calm - N/A   Clear
11:15 PM 51.3 °F 48.2 °F 89% 30.19 in 10.0 mi Calm Calm - N/A   Clear
11:35 PM 51.3 °F 48.6 °F 90% 30.19 in 10.0 mi Calm Calm - N/A   Clear
11:55 PM 50.4 °F 47.8 °F 91% 30.19 in 10.0 mi Calm Calm - N/A   Clear